Content
SEND FEEDBACK

Daily
Averages
Monthly
Summary
United States of America

LOOKEBA, OKLAHOMA


Home > North America > United States > Oklahoma
Elevation: 1455 feet     Latitude: 35 22N     Longitude: 098 22W

WEATHER
 
SELECT A DAY
Number of Records: 183,571;   Date Range: 7/10/07 - 12/23/14
 
SHARE

PRINT THIS DATA

[ ← Previous Day ]
WEATHER ALMANAC - JANUARY 31, 2013
[ Next Day → ]
[ °C ]   °F
Weather ElementAverageHighLow
Temperature37.5 °F59 °F (12:55 pm)26.6 °F (7:15 am)
Dewpoint24.5 °F32 °F (11:55 am)14 °F (11:35 pm)
Humidity61.9 %86 % (7:15 am)34 % (12:55 pm)
Barometer30.15 in30.39 in (8:55 pm)30.01 in (4:35 am)
Wind Speed8.6 mph20.7 mph (2:55 pm)
Wind Gust27.6 mph (3:15 pm)
Weather ElementAverage
Visibility10 mi
Wind DirectionESE (101 °)

Weather ElementTotal
Precipitation---
Heating Degree Days22.2 (Base 65)
Averaged from 71 records on January 31, 2013
WEATHER CONDITIONS BREAKOUT
WIND DIRECTION BREAKOUT
WEATHER BY HOUR - JANUARY 31, 2013
[ °C ]   °F
Local TimeTemperatureDewpointHumidityBarometerVisibilityWind DirectionWind SpeedGust SpeedPrecipitationEventsConditions
12:35 AM37.4 °F21.2 °F52 %30.04 in10.0 miWSW (250°)9.2 mphClear
12:55 AM37.4 °F19.4 °F48 %30.03 in10.0 miWSW (250°)6.9 mphClear
1:15 AM37.4 °F19.4 °F48 %30.03 in10.0 miWest (260°)8.1 mphClear
1:35 AM37.4 °F19.4 °F48 %30.03 in10.0 miNW (320°)3.5 mphClear
1:55 AM35.6 °F21.2 °F56 %30.03 in10.0 miCalmClear
2:15 AM33.8 °F21.2 °F60 %30.03 in10.0 miCalmClear
2:35 AM32.0 °F21.2 °F64 %30.03 in10.0 miCalmClear
2:55 AM32.0 °F21.2 °F64 %30.03 in10.0 miCalmClear
3:15 AM32.0 °F21.2 °F64 %30.03 in10.0 miCalmClear
3:35 AM32.0 °F21.2 °F64 %30.02 in10.0 miCalmClear
3:55 AM30.2 °F23.0 °F75 %30.02 in10.0 miCalmClear
4:15 AM30.2 °F23.0 °F75 %30.02 in10.0 miCalmClear
4:35 AM30.2 °F23.0 °F75 %30.01 in10.0 miCalmClear
4:55 AM28.4 °F23.0 °F80 %30.01 in10.0 miCalmClear
5:15 AM28.4 °F23.0 °F80 %30.02 in10.0 miCalmClear
5:35 AM28.4 °F23.0 °F80 %30.02 in10.0 miSW (220°)3.5 mphClear
5:55 AM28.4 °F23.0 °F80 %30.02 in10.0 miCalmClear
6:15 AM32.0 °F21.2 °F64 %30.02 in10.0 miSSW (210°)5.8 mphClear
6:35 AM32.0 °F21.2 °F64 %30.02 in10.0 miCalmClear
6:55 AM28.4 °F21.2 °F74 %30.03 in10.0 miCalmClear
7:15 AM26.6 °F23.0 °F86 %30.03 in10.0 miCalmClear
7:35 AM26.6 °F23.0 °F86 %30.04 in10.0 miCalmClear
7:55 AM26.6 °F23.0 °F86 %30.06 in10.0 miNNW (330°)8.1 mphClear
8:15 AM30.2 °F24.8 °F80 %30.05 in10.0 miNW (310°)3.5 mphClear
8:35 AM32.0 °F26.6 °F80 %30.06 in10.0 miCalmClear
8:55 AM32.0 °F26.6 °F80 %30.08 in10.0 miCalmClear
9:15 AM35.6 °F26.6 °F70 %30.08 in10.0 miSouth (190°)3.5 mphClear
9:35 AM37.4 °F24.8 °F60 %30.07 in10.0 miSSW (200°)5.8 mphClear
9:55 AM42.8 °F19.4 °F39 %30.07 in10.0 miSW (220°)10.4 mphClear
10:15 AM44.6 °F21.2 °F39 %30.08 in10.0 miWNW (290°)3.5 mphClear
10:35 AM44.6 °F24.8 °F46 %30.08 in10.0 miWest (270°)6.9 mphClear
10:55 AM44.6 °F28.4 °F53 %30.09 in10.0 miWest (270°)5.8 mphClear
11:15 AM46.4 °F28.4 °F50 %30.09 in10.0 miNW (310°)8.1 mphClear
11:35 AM48.2 °F30.2 °F50 %30.09 in10.0 miNW (310°)9.2 mphClear
11:55 AM50.0 °F32.0 °F50 %30.10 in10.0 miWNW (300°)11.5 mphClear
12:15 PM51.8 °F30.2 °F44 %30.09 in10.0 miNW (310°)5.8 mphClear
12:35 PM55.4 °F32.0 °F41 %30.09 in10.0 miNW (310°)6.9 mphClear
12:55 PM59.0 °F30.2 °F34 %30.07 in10.0 miWNW (290°)9.2 mphClear
1:15 PM59.0 °F30.2 °F34 %30.08 in10.0 miNNW (340°)10.4 mphClear
1:35 PM59.0 °F30.2 °F34 %30.08 in10.0 miNorth (10°)18.4 mph23.0 mphClear
1:55 PM59.0 °F32.0 °F36 %30.09 in10.0 miNE (40°)16.1 mph24.2 mphClear
2:15 PM55.4 °F30.2 °F38 %30.09 in10.0 miNNE (20°)17.3 mph24.2 mphClear
2:35 PM53.6 °F28.4 °F38 %30.10 in10.0 miNNE (30°)16.1 mph25.3 mphClear
2:55 PM53.6 °F28.4 °F38 %30.12 in10.0 miNNE (30°)20.7 mphClear
3:15 PM51.8 °F30.2 °F44 %30.14 in10.0 miNE (40°)20.7 mph27.6 mphClear
3:35 PM50.0 °F30.2 °F47 %30.14 in10.0 miNE (40°)19.6 mph27.6 mphClear
3:55 PM48.2 °F30.2 °F50 %30.18 in10.0 miNE (40°)19.6 mphClear
4:15 PM46.4 °F28.4 °F50 %30.20 in10.0 miNE (40°)20.7 mph26.5 mphClear
4:35 PM44.6 °F28.4 °F53 %30.21 in10.0 miNE (40°)20.7 mph27.6 mphClear
4:55 PM42.8 °F28.4 °F57 %30.22 in10.0 miNE (50°)17.3 mph25.3 mphClear
5:15 PM42.8 °F28.4 °F57 %30.25 in10.0 miNNE (30°)18.4 mph26.5 mphClear
5:35 PM41.0 °F28.4 °F61 %30.27 in10.0 miNE (40°)16.1 mphClear
5:55 PM37.4 °F28.4 °F70 %30.28 in10.0 miNNE (30°)13.8 mph18.4 mphClear
6:15 PM37.4 °F28.4 °F70 %30.30 in10.0 miNNE (30°)12.7 mphClear
6:35 PM35.6 °F26.6 °F70 %30.32 in10.0 miNE (40°)15.0 mphClear
6:55 PM33.8 °F26.6 °F75 %30.33 in10.0 miNE (40°)12.7 mphClear
7:15 PM33.8 °F26.6 °F75 %30.34 in10.0 miNE (50°)11.5 mphClear
7:35 PM32.0 °F26.6 °F80 %30.35 in10.0 miNE (50°)11.5 mph17.3 mphClear
7:55 PM32.0 °F26.6 °F80 %30.37 in10.0 miENE (60°)10.4 mph17.3 mphClear
8:15 PM30.2 °F23.0 °F75 %30.38 in10.0 miNE (40°)12.7 mphClear
8:35 PM30.2 °F23.0 °F75 %30.38 in10.0 miNE (50°)11.5 mphClear
8:55 PM28.4 °F21.2 °F74 %30.39 in10.0 miNE (50°)9.2 mph17.3 mphClear
9:15 PM28.4 °F21.2 °F74 %30.39 in10.0 miNE (50°)9.2 mph18.4 mphClear
9:35 PM28.4 °F21.2 °F74 %30.38 in10.0 miENE (60°)11.5 mphClear
9:55 PM28.4 °F19.4 °F69 %30.38 in10.0 miENE (60°)12.7 mphClear
10:15 PM26.6 °F19.4 °F74 %30.38 in10.0 miENE (60°)11.5 mphClear
10:35 PM26.6 °F19.4 °F74 %30.39 in10.0 miENE (60°)11.5 mphClear
10:55 PM26.6 °F19.4 °F74 %30.38 in10.0 miENE (60°)10.4 mphClear
11:15 PM26.6 °F17.6 °F69 %30.36 in10.0 miENE (60°)12.7 mph20.7 mphClear
11:35 PM26.6 °F14.0 °F59 %30.36 in10.0 miENE (60°)12.7 mph19.6 mphClear
11:55 PM26.6 °F14.0 °F59 %30.38 in10.0 miNE (50°)11.5 mph18.4 mphClear
Hourly data recorded from KOJA, located miles away from Lookeba, Oklahoma







STORIES FROM OUR PARTNERS